User: anonymous   Login
Location: Unspecified
(0.0000°N, 0.0000°E)
Time: 22:33:21
(UTC+00:00)
Language:

COSMOS 2496 - Orbit

View from above orbital plane
View from above orbital plane
View from above satellite
View from above satellite

Ground track
Ground track

The orbit data is extracted from the following two-line orbital elements,

1 39761U 14028A   19046.79596119 +.00000018 +00000-0 +60189-4 0  9995
2 39761 082.4489 346.4263 0019310 149.7387 210.4815 12.42893782214851
Epoch (UTC): 15 February 2019 19:06:11
Eccentricity: 0.0019310
inclination: 82.4489°
perigee height: 1479 km
apogee height: 1509 km
right ascension of ascending node: 346.4263°
argument of perigee: 149.7387°
revolutions per day: 12.42893782
mean anomaly at epoch: 210.4815°
orbit number at epoch: 21485

The dashed part of the orbit path shows where the satellite is in the earth's shadow,  

DLR